Lid_Strength_Index
2 2 2 2 2 2 2 2 2 2 2 2 2 2 3 3 3 4 6 3 2 -1 1 3 2 1 2 3 3 4 12 13 13 12 11 6 7 5 3 5 4 4 4 3 1
2 2 2 2 2 2 2 2 2 2 2 2 2 2 3 3 3 5 -1 -3 -1 -1 6 3 3 2 3 4 5 8 12 11 9 9 9 7 6 6 6 6 5 5 3 2 2
2 2 2 2 2 2 2 2 2 2 2 2 2 2 2 2 4 4 -3 -3 -3 0 5 2 3 3 4 4 6 7 10 8 7 6 6 7 7 5 6 8 5 5 4 3 2
2 2 2 2 2 2 2 2 2 2 2 2 2 2 2 1 8 3 -3 -3 -3 2 4 3 3 4 5 7 5 8 7 6 6 6 6 8 6 6 6 6 4 3 3 3 3
2 2 2 2 2 2 2 2 2 3 3 2 2 2 2 3 4 3 -3 -2 2 3 5 3 3 4 6 6 6 8 7 6 6 6 6 6 7 8 6 4 3 3 3 3 3
2 2 2 2 2 2 3 3 3 3 3 2 2 2 2 6 -0 2 3 3 2 3 3 3 3 4 5 6 7 6 6 6 6 6 6 7 7 7 6 4 4 3 4 3 3
2 2 2 2 2 2 3 3 3 3 2 2 2 1 3 4 0 0 1 3 3 2 3 1 3 5 4 7 4 5 8 7 7 7 7 6 9 9 6 5 4 4 4 3 3
2 2 2 2 2 3 3 4 3 2 2 2 1 1 4 0 -1 0 1 1 1 2 1 1 3 5 6 6 7 8 8 12 8 7 7 7 12 7 5 6 6 5 4 4 3
2 2 2 2 3 3 4 4 2 1 2 2 1 2 5 1 3 1 1 3 2 2 2 1 3 5 4 8 11 10 13 12 10 7 7 8 11 7 5 6 7 5 5 4 3
2 3 2 3 3 4 4 4 1 2 2 0 1 4 3 3 2 2 1 2 3 2 3 3 4 6 6 8 16 14 13 11 12 9 8 10 10 7 6 6 7 6 4 4 4
3 3 3 3 3 4 4 1 3 4 2 4 4 4 3 2 1 2 2 2 3 3 6 4 6 8 9 8 8 9 11 12 9 7 10 10 10 8 6 7 7 7 6 5 4
3 3 3 3 4 4 4 3 2 2 5 2 2 2 2 2 5 3 2 5 5 6 5 6 8 6 6 6 7 8 9 10 8 7 9 10 11 8 7 7 6 6 6 5 5
3 3 3 4 4 4 4 2 -0 1 4 4 3 3 3 3 4 4 3 4 5 6 6 7 6 5 6 6 7 7 8 9 10 8 8 11 12 11 8 6 6 5 5 5 5
3 3 4 5 3 1 3 1 0 1 7 6 4 3 3 3 5 2 3 4 5 6 6 6 5 6 6 7 6 9 6 7 8 10 13 8 15 12 9 8 7 6 5 6 5
3 3 4 5 2 3 2 1 1 2 13 5 5 1 2 4 4 4 2 4 6 6 6 7 6 6 7 7 6 8 6 7 7 10 10 10 12 12 10 10 8 7 6 5 5
4 4 4 1 1 0 0 2 2 8 12 7 5 5 5 4 5 4 4 3 3 5 5 6 4 5 6 5 5 5 6 7 7 8 12 11 10 14 12 10 10 7 6 5 4
5 5 5 2 2 -0 1 4 8 11 6 7 7 5 6 6 5 5 6 6 7 8 8 7 6 5 5 6 5 6 8 13 14 14 14 9 10 11 8 7 9 8 6 5 4
6 6 3 2 1 1 3 8 12 8 8 5 6 6 7 6 6 6 7 8 5 6 8 9 10 7 5 6 7 7 8 15 19 18 15 9 12 10 7 5 5 5 5 5 4
6 2 1 1 1 2 5 11 10 8 6 6 6 7 7 6 6 6 7 7 6 6 8 9 9 6 5 5 6 8 9 7 11 10 13 12 8 7 5 6 6 6 5 5 5
4 4 3 1 2 4 7 11 9 7 6 6 8 7 8 7 7 7 7 6 6 5 5 7 9 7 6 5 5 7 6 9 9 12 14 12 11 11 8 7 6 6 8 5 4
3 4 2 1 3 6 10 9 8 6 6 7 7 7 7 8 7 7 7 6 5 5 5 6 7 8 6 7 8 7 8 8 8 9 14 16 13 7 7 6 6 7 7 6 4
3 6 2 2 7 6 8 7 8 7 6 7 6 7 7 7 7 7 7 6 5 5 6 5 7 10 8 6 5 6 7 7 10 10 9 12 12 6 5 5 5 5 5 4 4
5 4 1 2 8 7 6 7 6 7 7 8 8 6 6 7 8 7 7 5 5 5 6 5 8 10 10 7 6 7 7 7 7 8 11 13 12 5 5 5 5 5 5 4 4
4 7 4 3 4 6 7 7 7 6 7 7 7 7 6 7 6 7 7 5 5 5 2 4 7 8 11 11 8 8 7 7 7 9 10 12 10 8 6 6 5 5 5 4 4
4 6 5 8 7 6 6 6 7 7 6 7 8 8 8 8 7 7 7 6 5 6 4 5 8 7 7 7 7 8 8 7 8 8 9 9 10 8 7 6 5 4 4 4 4
5 6 5 6 5 6 7 7 7 6 6 8 8 8 7 8 7 7 6 6 7 5 5 5 9 7 8 8 9 8 7 7 7 7 8 7 8 6 5 5 5 5 5 5 4
2 2 4 6 6 7 7 7 7 6 5 5 6 6 8 6 5 4 4 5 5 7 6 6 7 9 11 9 11 11 8 7 7 6 7 8 7 6 6 5 5 5 4 4 4